Orbital Elements
Epoch 2017 Oct. 14.0 TT = JDT 2458040.5
T 2017 Oct. 27.96052 TT MPCW
q 0.1239492 (2000.0) P Q
n 0.18638415 Peri. 14.79292 -0.20613642 -0.49003473
a 3.0352658 Node 94.25441 +0.78919460 -0.59499246
e 0.9591636 Incl. 58.13773 +0.57851505 +0.63706353
P 5.29
From 925 observations 2007 Apr. 9-2017 Aug. 19, mean residual 0".6.
Nongravitational parameters A1 = -0.01, A2 = -0.0002.
|